User: anonymous   Login
Location: DaVinci Observatory
(43.1080°N, 78.6453°W)
Time: 21:37:37
(UTC-05:00)
Language:

TIGRISAT - Orbit

View from above orbital plane
View from above orbital plane
View from above satellite
View from above satellite

Ground track
Ground track

The orbit data is extracted from the following two-line orbital elements,

1 40043U 14033AK  19052.20541526  .00000121  00000-0  25254-4 0  9990
2 40043  97.7753 284.9241 0061262 115.3756 245.3813 14.74227827251295
Epoch (UTC): 21 February 2019 04:55:47
Eccentricity: 0.0061262
inclination: 97.7753°
perigee height: 604 km
apogee height: 690 km
right ascension of ascending node: 284.9241°
argument of perigee: 115.3756°
revolutions per day: 14.74227827
mean anomaly at epoch: 245.3813°
orbit number at epoch: 25129

The dashed part of the orbit path shows where the satellite is in the earth's shadow,  

DLR